#timestamp,LO_Frequency,Hit,StdDev 
1650974415.9,286047001.6,N
1650974435.7,286046999.7,N
1650974455.5,286047000.9,N
1650974475.4,286047002.4,N
1650974495.2,286047000.7,N
1650974515.0,286046997.0,N
1650974515.9,286046997.0,N
1650974535.8,286046998.6,N
1650974555.6,286047002.0,N
1650974575.5,286047004.0,N
1650974595.3,286047004.4,N
1650974615.1,286047001.3,N
1650974635.9,286047003.6,N
1650974655.7,286047004.7,N
1650974675.5,286047005.3,N
1650974695.4,286047003.1,N
1650974715.2,286047002.1,N
1650974735.1,286047002.4,N
1650974736.0,286047002.4,N
1650974755.8,286047000.4,N
1650974775.6,286047000.1,N
1650974795.5,286047001.4,N
1650974815.3,286047002.2,N
1650974835.1,286047002.5,N
1650974855.9,286047000.5,N
1650974875.7,286047000.5,N
1650974895.6,286046999.4,N
1650974915.4,286046997.3,N
1650974935.2,286046997.4,N
1650974955.1,286046999.6,N
1650974956.0,286046999.6,N
1650974975.8,286047000.1,N
1650974995.6,286047000.9,N
1650975015.5,286047001.0,N
1650975035.3,286046997.3,N
1650975055.2,286046996.9,N
1650975075.9,286046998.5,N
1650975095.7,286046999.9,N
1650975115.6,286047000.0,N
1650975135.4,286046998.5,N
1650975155.2,286047002.3,N
1650975175.1,286047003.9,N
1650975176.0,286047003.9,N
1650975195.8,286047004.1,N
1650975215.7,286047003.3,N
1650975235.5,286047006.0,N
1650975255.3,286047003.6,N
1650975275.2,286047003.7,N
1650975295.0,286047003.6,N
1650975295.9,286047003.6,N
1650975315.8,286047006.0,N
1650975335.6,286047003.5,N
1650975355.4,286047003.3,N
1650975375.3,286047004.9,N
1650975395.1,286047005.9,N
1650975415.8,286047007.0,N
1650975435.7,286047006.1,N
1650975455.5,286047006.6,N
1650975475.4,286047008.6,N
1650975495.2,286047005.2,N
1650975515.0,286047003.6,N
1650975515.9,286047003.6,N
1650975535.8,286047003.0,N
1650975555.6,286047005.1,N
1650975575.4,286047006.0,N
1650975595.3,286047004.7,N
1650975615.1,286047004.5,N
1650975635.9,286047005.9,N
1650975655.7,286047001.3,N
1650975675.5,286047003.2,N
1650975695.4,286047005.4,Y
1650975715.2,286046999.0,P
1650975735.0,286046999.0,N
1650975736.0,286046999.0,N
1650975755.8,286046999.4,N
1650975775.6,286046995.0,N
1650975795.5,286046995.2,N
1650975815.3,286046994.5,N
1650975835.1,286046994.7,N
1650975855.9,286046992.5,N
1650975875.7,286046992.8,N
1650975895.6,286046991.3,N
1650975915.4,286046991.4,N
1650975935.2,286046990.8,N
1650975955.1,286046990.6,N
1650975956.0,286046990.6,N
1650975975.8,286046990.8,N
1650975995.6,286046989.9,N
1650976015.5,286046985.9,Y
1650976035.3,286046991.2,P
1650976055.2,286046991.1,P
1650976075.9,286046991.1,P
1650976095.7,286046992.1,Y
1650976115.6,286046998.9,P
1650976135.4,286046998.6,N
1650976155.2,286047000.8,N
1650976175.1,286046999.4,N
1650976176.0,286046999.4,N
1650976195.8,286046998.8,N
1650976215.7,286047001.0,N
1650976235.5,286047000.3,N
1650976255.3,286047002.3,N
1650976275.2,286047002.4,N
1650976295.0,286047000.5,N
1650976295.9,286047000.5,N
1650976315.7,286047000.8,N
1650976335.6,286047000.3,N
1650976355.4,286046998.3,N
1650976375.3,286046996.6,N
1650976395.1,286046999.2,N
1650976396.0,286046999.2,N
1650976415.8,286046996.7,N
1650976435.7,286046997.9,N
1650976455.5,286046997.5,N
1650976475.3,286046997.6,N
1650976495.2,286046997.2,N
1650976515.0,286046994.9,N
1650976515.9,286046994.9,N
1650976535.8,286046997.3,N
1650976555.6,286046999.1,N
1650976575.4,286046999.4,N
1650976595.3,286046996.7,N
1650976615.1,286046997.0,N
1650976635.9,286046996.5,N
1650976655.7,286046997.0,N
1650976675.5,286046997.5,N
1650976695.4,286046997.4,N
1650976715.2,286046998.4,N
1650976765.1,286046998.9,E
1650976775.9,286046998.7,N
1650976795.7,286046996.7,P
1650976815.6,286046999.2,N
1650976835.4,286046996.8,N
1650976855.2,286046997.1,N
1650976875.1,286046998.2,N
1650976876.0,286046998.2,N
1650976895.8,286047001.1,N
1650976915.7,286046998.1,N
1650976935.5,286047001.0,N
1650976955.3,286046998.8,N
1650976975.2,286046999.4,N
1650976995.0,286046998.5,N
1650976995.9,286046998.5,N
1650977015.7,286046998.8,N
1650977035.6,286046998.1,N
1650977055.4,286046998.6,N
1650977075.3,286046998.6,N
1650977095.1,286047000.3,N
1650977096.0,286047000.3,N
1650977115.8,286046998.1,N
1650977135.7,286047000.5,N
1650977155.5,286046998.2,N
1650977175.3,286046998.4,N
1650977195.2,286047000.6,N
1650977215.0,286047001.9,N
1650977215.9,286047001.9,N
1650977235.8,286047002.8,N
1650977255.6,286047001.7,N
1650977275.4,286046999.9,N
1650977295.3,286047002.1,N
1650977315.1,286047002.6,N
1650977335.8,286047000.5,N
1650977355.7,286047001.9,N
1650977375.5,286047003.5,N
1650977395.4,286047003.8,N
1650977415.2,286047004.3,N
1650977435.0,286046999.8,N
1650977435.9,286046999.8,N
1650977455.8,286047000.0,N
1650977475.6,286047000.8,N
1650977495.4,286047000.6,N
1650977515.3,286047002.8,N
1650977535.1,286047001.8,N
1650977555.9,286047000.4,N
1650977575.7,286047000.0,N
1650977595.5,286046999.7,N
1650977615.4,286047002.3,N
1650977635.2,286047001.6,N
1650977655.0,286047002.0,N
1650977655.9,286047002.0,N
1650977675.8,286046998.9,N
1650977695.6,286046999.0,N
1650977715.5,286046997.0,N
1650977735.3,286046996.5,N
1650977755.1,286046998.3,N
1650977775.9,286047002.0,N
1650977795.7,286047000.1,N
1650977815.5,286046998.3,N
1650977835.4,286047000.6,N
1650977855.2,286047004.3,N
1650977875.1,286047004.3,N
1650977876.0,286047004.3,N
1650977895.8,286047004.3,N
1650977915.6,286047003.6,N
1650977935.5,286047002.9,N
1650977955.3,286047005.2,N
1650977975.1,286047007.1,Y
1650977995.9,286047004.0,P
